Probability
52 71 68 81 90 100 100 100 100 100 100 100 94 94 87 90 90 90 84 84 74 74 87 87 90 84 87 84 81 87 84 77 74 55 48 32 45 48 55 55 45 39 42
68 84 84 84 90 97 97 97 97 97 100 100 100 97 94 90 87 87 87 84 77 77 61 84 87 90 90 81 81 81 84 74 65 74 45 42 32 35 32 48 52 45 45
71 84 87 90 90 94 97 97 97 97 97 97 97 94 94 94 90 84 81 81 74 77 74 81 77 81 77 74 81 81 77 74 68 61 55 42 26 39 29 42 42 48 45
65 84 84 87 90 94 94 97 97 97 97 97 97 94 94 90 90 90 84 84 81 77 71 74 74 74 81 77 74 74 74 71 65 65 68 65 52 39 32 26 29 42 42
58 81 81 87 87 94 94 97 97 97 97 97 97 97 97 94 94 81 84 81 77 74 71 77 77 71 74 74 74 68 71 71 65 61 55 55 52 26 26 23 19 29 32
55 77 77 94 94 94 94 97 97 97 97 97 97 97 97 97 94 90 87 84 77 81 68 74 77 81 77 77 74 74 68 71 65 65 65 58 39 39 32 26 19 13 19
65 77 81 90 94 97 97 97 97 97 97 97 97 97 97 97 97 94 87 81 81 77 81 74 77 74 68 68 71 65 61 61 58 61 58 58 48 48 39 29 19 13 16
58 68 84 90 94 94 97 97 97 97 97 97 97 97 97 97 94 94 90 87 84 81 81 81 74 71 65 61 71 65 65 61 61 48 55 58 48 52 42 39 29 16 13
61 68 81 90 94 94 94 97 97 94 94 94 97 97 97 97 94 94 90 84 87 77 77 74 68 71 65 68 65 65 61 65 61 58 48 45 39 48 45 32 29 19 13
58 68 68 74 87 90 84 87 87 94 94 90 90 90 94 94 90 94 90 84 84 81 71 71 71 68 68 65 68 61 61 61 55 55 42 45 35 39 39 39 29 29 19
55 61 68 71 71 81 81 81 87 84 84 87 84 87 87 87 87 87 87 84 81 81 74 71 68 68 71 61 58 48 52 48 48 45 39 42 35 35 32 26 23 19 19
65 61 71 71 68 74 81 81 84 84 81 87 87 87 87 84 84 84 84 84 81 74 74 68 68 65 61 58 55 52 52 42 42 48 45 39 32 29 32 23 19 19 19
68 68 71 77 81 81 81 84 84 87 84 90 87 87 87 81 81 81 84 81 77 74 74 71 65 61 58 61 52 52 45 45 48 45 42 35 32 29 23 26 13 16 10
77 74 81 81 87 87 84 81 77 87 84 84 87 87 87 84 81 81 81 77 74 77 68 65 61 61 55 61 48 39 39 42 42 35 35 29 29 26 23 23 19 13 13
77 77 77 77 77 81 84 84 84 84 81 81 81 87 81 77 84 84 84 81 77 74 68 61 55 52 45 39 35 35 35 39 35 35 35 32 23 19 10 10 13 10 10
71 77 77 77 74 74 74 81 77 77 81 81 81 81 74 74 77 81 81 77 74 68 68 58 55 48 35 16 16 26 32 35 39 42 39 26 19 6 3 3 3 3 3
61 65 74 77 74 71 68 68 74 77 74 74 77 74 71 71 74 77 71 74 71 68 65 61 58 52 35 16 13 13 23 29 39 39 39 26 16 6 13 3 0 0 0
55 58 61 68 68 68 68 65 71 71 71 68 68 68 71 68 68 68 68 71 71 71 65 61 58 55 26 13 10 3 16 26 32 32 29 32 26 16 13 10 6 6 3
55 61 61 61 65 65 65 65 65 71 68 68 68 68 65 65 61 61 61 65 65 68 68 61 58 45 29 13 10 3 19 26 29 29 26 23 23 16 6 6 6 6 3
55 58 55 58 61 65 65 65 61 68 65 65 65 65 61 61 61 58 58 61 58 61 68 58 52 39 35 19 10 3 10 26 26 23 23 16 13 13 6 6 6 6 3
52 52 52 55 61 65 68 68 71 65 68 65 61 58 58 58 55 58 58 58 55 52 48 55 55 42 32 19 6 0 10 19 19 19 19 16 10 3 0 0 6 6 3
48 48 52 52 65 68 71 71 68 61 58 58 61 58 58 45 45 52 61 61 52 45 45 42 48 32 29 10 3 0 0 6 6 13 13 13 10 0 0 0 3 3 0
45 48 45 52 65 68 71 74 68 68 55 55 55 55 52 55 52 48 45 48 52 45 39 39 42 29 29 23 3 0 0 0 3 6 6 6 3 0 0 0 0 0 0
48 42 39 48 58 65 65 65 58 61 61 55 58 45 55 42 39 35 32 32 35 35 35 35 29 26 26 16 10 6 3 0 0 3 3 0 0 0 3 3 0 0 3
48 42 45 48 45 52 55 45 52 55 58 58 52 42 39 32 39 29 35 29 23 23 29 23 26 29 19 10 10 3 3 3 3 3 6 3 6 6 3 3 3 0 0
39 39 42 35 42 42 45 48 48 55 52 45 42 39 32 29 26 26 19 6 6 6 6 10 6 3 6 6 0 0 3 3 3 3 3 3 3 3 3 3 3 3 0
Height
5918 5916 5914 5913 5911 5910 5908 5907 5905 5904 5902 5901 5899 5898 5897 5896 5895 5894 5893 5893 5892 5892 5891 5891 5891 5891 5891 5891 5891 5892 5892 5892 5893 5893 5893 5894 5894 5894 5894 5894 5894 5894 5894
5918 5917 5915 5914 5912 5911 5909 5908 5906 5905 5903 5902 5900 5899 5898 5897 5896 5895 5894 5893 5892 5892 5891 5891 5891 5890 5890 5890 5890 5890 5891 5891 5891 5891 5891 5892 5893 5892 5892 5892 5892 5892 5892
5918 5917 5916 5915 5913 5912 5910 5909 5907 5905 5904 5902 5901 5900 5898 5897 5896 5895 5894 5893 5892 5891 5891 5890 5890 5890 5890 5889 5889 5889 5889 5889 5889 5890 5890 5890 5890 5889 5889 5889 5889 5889 5889
5918 5917 5916 5915 5914 5912 5911 5909 5908 5906 5904 5903 5901 5900 5898 5897 5896 5895 5894 5893 5892 5891 5890 5890 5889 5889 5889 5889 5888 5888 5888 5888 5888 5888 5888 5888 5888 5887 5887 5887 5886 5887 5886
5917 5917 5916 5915 5913 5912 5911 5909 5908 5906 5904 5903 5901 5900 5898 5897 5895 5894 5893 5892 5891 5890 5890 5889 5889 5888 5888 5887 5887 5887 5886 5886 5885 5885 5885 5885 5885 5885 5885 5884 5884 5884 5883
5916 5915 5915 5914 5913 5912 5910 5909 5907 5906 5904 5903 5901 5899 5898 5896 5895 5894 5893 5892 5891 5890 5889 5888 5888 5887 5887 5886 5886 5885 5885 5884 5884 5883 5883 5883 5882 5882 5882 5881 5881 5880 5880
5914 5914 5913 5912 5911 5910 5910 5908 5907 5905 5904 5902 5901 5899 5897 5895 5894 5893 5892 5891 5890 5889 5888 5887 5886 5886 5885 5885 5884 5884 5883 5882 5882 5881 5881 5880 5880 5879 5879 5878 5877 5877 5876
5913 5912 5911 5911 5910 5909 5908 5907 5906 5904 5903 5902 5900 5898 5896 5895 5893 5892 5891 5890 5889 5888 5887 5886 5885 5884 5883 5883 5882 5882 5881 5881 5880 5879 5878 5878 5877 5876 5875 5875 5874 5873 5872
5910 5909 5909 5908 5908 5907 5906 5905 5904 5903 5902 5900 5899 5897 5895 5894 5892 5891 5889 5888 5887 5886 5885 5884 5883 5882 5881 5881 5880 5880 5879 5878 5878 5877 5876 5875 5874 5873 5872 5871 5870 5869 5868
5907 5906 5906 5905 5905 5904 5904 5903 5902 5901 5900 5898 5897 5895 5894 5892 5891 5889 5888 5887 5886 5884 5883 5882 5881 5880 5879 5879 5878 5877 5876 5876 5875 5874 5873 5871 5870 5869 5868 5866 5865 5864 5864
5903 5900 5902 5902 5902 5901 5900 5900 5899 5898 5897 5896 5895 5893 5892 5890 5889 5888 5886 5885 5884 5882 5881 5880 5879 5878 5877 5876 5875 5874 5873 5872 5871 5870 5869 5868 5866 5865 5864 5862 5861 5860 5859
5898 5897 5897 5897 5898 5898 5897 5896 5896 5895 5894 5893 5892 5890 5889 5887 5886 5885 5884 5883 5882 5880 5879 5878 5877 5876 5874 5873 5872 5871 5870 5869 5868 5866 5865 5863 5862 5861 5860 5858 5857 5855 5854
5895 5894 5893 5892 5894 5894 5894 5892 5892 5892 5891 5890 5888 5887 5885 5884 5884 5882 5881 5880 5879 5878 5876 5875 5874 5873 5871 5870 5869 5868 5867 5865 5864 5863 5861 5859 5858 5857 5855 5854 5852 5850 5849
5891 5890 5889 5889 5890 5890 5889 5889 5888 5887 5887 5886 5885 5883 5882 5881 5880 5879 5878 5877 5876 5874 5873 5872 5871 5870 5868 5867 5866 5864 5863 5861 5860 5858 5857 5855 5853 5852 5850 5849 5847 5845 5843
5885 5886 5885 5885 5885 5884 5884 5884 5884 5883 5882 5881 5880 5879 5878 5877 5876 5875 5874 5873 5872 5870 5869 5868 5867 5866 5865 5863 5862 5860 5859 5857 5856 5854 5852 5850 5848 5847 5845 5843 5841 5839 5837
5879 5880 5879 5879 5879 5878 5878 5878 5878 5878 5877 5876 5875 5874 5873 5872 5871 5870 5869 5868 5867 5866 5865 5864 5862 5861 5860 5859 5857 5856 5854 5852 5851 5849 5847 5845 5843 5841 5839 5837 5835 5833 5830
5873 5874 5873 5873 5872 5871 5872 5871 5872 5871 5871 5870 5870 5868 5867 5866 5866 5865 5864 5862 5861 5861 5860 5858 5857 5856 5855 5853 5852 5850 5849 5847 5845 5843 5841 5839 5837 5835 5832 5830 5827 5825 5823
5866 5867 5867 5866 5866 5865 5865 5864 5865 5865 5864 5864 5863 5863 5861 5860 5859 5858 5857 5856 5856 5855 5853 5852 5851 5850 5849 5847 5846 5844 5843 5841 5839 5837 5835 5833 5830 5828 5826 5823 5821 5818 5816
5859 5859 5859 5859 5859 5858 5858 5857 5858 5858 5858 5857 5857 5856 5855 5854 5854 5852 5851 5850 5849 5848 5847 5845 5844 5843 5842 5840 5839 5837 5836 5834 5833 5831 5828 5826 5823 5821 5819 5817 5814 5811 5809
5851 5851 5851 5851 5852 5851 5851 5850 5850 5850 5850 5850 5849 5849 5848 5848 5847 5846 5845 5843 5842 5841 5839 5838 5837 5835 5835 5834 5832 5830 5829 5827 5826 5823 5821 5819 5816 5814 5811 5809 5806 5804 5801
5843 5843 5844 5844 5844 5844 5843 5843 5843 5842 5842 5842 5842 5841 5841 5840 5840 5838 5837 5836 5835 5833 5831 5830 5829 5828 5827 5826 5824 5823 5821 5819 5818 5816 5814 5811 5809 5806 5804 5801 5799 5796 5794
5835 5835 5835 5835 5835 5835 5835 5834 5834 5833 5833 5833 5833 5833 5832 5831 5831 5830 5829 5828 5827 5826 5824 5823 5821 5820 5819 5818 5816 5815 5813 5811 5809 5808 5805 5803 5801 5798 5796 5794 5791 5788 5786
5826 5826 5826 5826 5826 5826 5826 5825 5825 5824 5824 5824 5824 5823 5823 5822 5821 5821 5820 5820 5819 5818 5817 5815 5813 5812 5811 5810 5808 5807 5805 5803 5801 5799 5796 5794 5792 5790 5788 5786 5783 5781 5778
5816 5816 5816 5816 5816 5816 5816 5816 5815 5815 5815 5814 5814 5814 5813 5812 5811 5811 5811 5810 5809 5809 5808 5806 5805 5804 5803 5801 5800 5798 5796 5794 5792 5790 5788 5786 5784 5782 5779 5777 5774 5772 5770
5805 5805 5805 5805 5805 5805 5805 5805 5804 5804 5804 5804 5804 5804 5803 5802 5802 5801 5800 5800 5800 5799 5797 5796 5795 5794 5794 5793 5791 5789 5788 5786 5783 5781 5779 5777 5775 5773 5771 5768 5765 5763 5760
5794 5794 5794 5794 5794 5794 5794 5794 5793 5793 5793 5794 5794 5793 5793 5792 5791 5790 5789 5788 5789 5788 5786 5785 5784 5784 5783 5782 5781 5779 5778 5776 5773 5771 5770 5768 5765 5763 5761 5758 5756 5753 5751
Wind_Speed
12 13 13 14 15 15 15 15 14 14 13 12 12 11 10 10 8 8 6 5 5 4 3 3 3 3 3 4 5 6 6 7 7 7 7 7 7 7 7 7 8 8 8
11 12 12 13 13 13 13 14 14 14 14 13 12 11 11 10 8 7 7 6 6 5 4 3 3 3 4 4 5 6 7 7 7 8 8 8 9 9 9 8 9 9 9
10 11 11 11 12 12 13 13 13 14 14 13 13 12 11 10 9 8 7 6 6 6 6 5 4 4 4 5 5 6 7 7 8 9 9 9 9 10 10 10 10 10 10
9 10 10 10 11 12 12 12 13 13 14 13 12 12 11 11 9 8 8 7 7 6 6 5 5 4 5 5 6 6 7 7 8 9 10 10 10 10 10 11 11 12 12
10 10 10 10 11 12 12 12 13 13 13 13 12 12 12 11 10 9 8 8 7 7 7 6 5 5 6 6 6 6 7 8 8 8 9 10 11 11 12 12 12 13 13
11 11 11 11 11 12 12 12 12 13 13 13 13 13 12 11 10 9 8 8 8 7 7 7 6 6 6 6 6 6 7 8 8 9 10 11 11 12 12 12 13 13 14
12 12 12 12 12 12 12 12 12 13 14 14 13 13 12 12 11 10 10 9 8 8 8 7 8 7 7 7 7 8 8 8 9 10 10 11 12 13 13 14 14 15 15
14 14 13 13 12 12 12 11 12 13 14 14 13 13 13 13 12 12 11 10 9 9 8 8 8 8 8 8 8 9 9 10 10 10 11 12 13 14 14 15 15 16 16
16 15 14 13 13 13 13 13 13 13 14 15 14 13 13 13 13 12 11 11 11 10 9 9 9 9 9 9 10 10 10 10 11 12 13 13 14 15 16 16 17 17 17
18 17 15 15 14 14 14 14 14 14 14 14 14 13 13 13 13 12 12 12 11 11 11 11 11 11 10 10 11 11 11 12 13 13 14 15 16 16 17 17 18 18 18
19 17 16 15 15 16 16 15 15 15 15 15 15 14 14 14 13 13 12 13 13 13 12 12 12 12 12 12 13 13 13 13 14 15 15 16 16 16 17 17 18 18 19
20 18 18 16 16 17 18 18 17 17 16 16 16 16 15 15 14 14 14 14 14 14 14 13 13 13 13 14 14 15 15 15 15 16 16 16 17 17 17 18 19 20 20
20 21 21 18 18 19 19 19 19 18 17 17 18 18 17 16 16 16 15 16 16 16 16 15 15 15 15 15 15 16 16 17 17 18 18 18 18 19 20 20 21 22 22
22 23 23 22 22 22 21 21 21 20 20 19 19 19 18 17 17 17 18 18 18 18 18 17 17 17 17 17 17 18 18 18 18 19 19 19 20 20 21 22 22 23 24
24 24 25 25 25 24 23 23 23 23 22 21 20 20 20 19 20 20 20 19 20 20 20 19 19 19 19 19 19 19 19 20 20 20 21 21 21 21 23 23 24 25 25
26 26 26 27 27 26 25 24 24 24 23 22 21 21 22 22 22 22 22 22 21 21 21 22 22 22 21 21 22 22 22 22 23 23 22 23 23 23 24 25 26 26 26
27 27 27 28 28 28 27 25 25 24 24 24 23 24 23 23 23 23 23 23 22 22 23 24 24 24 24 24 24 24 24 24 25 25 26 26 25 25 25 26 26 27 27
28 28 28 28 29 29 28 27 27 25 25 25 25 25 26 25 26 25 25 25 25 25 25 25 25 25 26 26 26 26 26 26 27 28 28 28 28 28 27 28 28 28 28
29 29 29 29 30 30 30 29 28 28 28 27 27 26 27 27 27 27 27 27 27 27 28 27 27 27 27 27 27 27 28 28 29 29 28 29 28 28 28 29 29 30 29
30 29 29 30 30 30 30 30 30 30 30 30 29 29 28 28 29 29 29 29 30 30 30 30 29 28 28 28 28 28 29 29 30 29 28 29 29 30 30 30 30 30 29
30 31 31 31 31 31 31 31 31 31 31 31 31 31 31 31 31 30 30 30 31 31 30 30 29 29 29 29 29 29 30 30 30 31 30 30 30 31 31 31 31 30 30
32 32 32 32 32 32 32 32 32 32 32 32 32 32 33 33 33 32 32 32 32 32 31 31 30 30 30 30 29 30 30 31 32 32 33 32 31 31 31 31 31 31 30
34 34 34 34 34 34 34 34 33 33 33 33 33 33 34 34 34 34 34 34 34 33 33 33 31 30 30 30 31 32 32 32 33 33 33 33 33 32 32 32 32 32 32
37 36 36 36 36 36 36 36 35 35 35 35 34 34 35 35 35 35 35 35 35 35 35 34 32 31 31 32 32 32 33 33 33 33 33 33 34 33 33 33 33 34 34
37 38 38 38 38 37 37 37 38 38 37 37 36 36 37 37 37 37 37 37 37 37 37 36 35 35 34 33 34 34 34 35 34 34 34 34 35 35 35 35 35 35 35
38 38 38 38 38 38 37 37 38 38 37 37 37 38 38 38 38 38 38 38 38 38 38 38 37 37 36 36 36 37 37 36 36 36 36 36 36 36 36 36 36 36 36
Wind_Direction
8 13 17 17 19 21 22 20 20 20 20 18 19 21 20 19 18 19 18 12 13 1 347 334 307 289 277 274 268 263 255 250 250 253 255 259 262 264 269 272 273 277 276
1 3 7 10 11 14 15 15 15 14 14 12 11 12 11 11 9 6 6 2 359 355 345 339 322 307 290 280 274 272 267 264 260 261 262 265 272 270 268 270 274 276 273
353 358 360 0 4 7 8 8 9 8 7 8 7 5 6 5 2 357 355 355 351 344 343 337 325 315 307 290 280 279 278 273 269 268 270 271 275 276 274 274 277 278 277
340 352 355 355 355 358 360 0 2 3 1 1 2 1 359 358 356 351 350 348 348 342 336 333 326 319 311 298 292 290 290 283 278 274 276 275 275 279 282 282 279 279 279
328 336 342 343 343 346 349 351 355 356 354 353 354 354 353 352 350 347 343 340 338 335 334 325 319 315 310 300 293 298 299 293 285 282 284 283 279 278 282 283 283 282 282
315 323 328 332 335 338 341 344 347 350 349 346 346 347 348 346 342 342 338 334 332 329 326 323 313 308 305 303 302 306 310 304 298 294 289 286 284 279 280 281 283 285 285
301 309 317 323 326 329 331 335 339 343 344 342 341 340 340 339 336 335 334 329 327 326 325 322 319 309 299 298 299 301 304 306 303 300 298 294 290 285 283 282 283 284 285
289 297 304 313 318 320 323 325 329 332 334 335 334 335 336 335 335 335 335 331 326 325 328 328 321 318 306 300 300 299 301 305 306 305 302 299 296 291 289 287 287 287 288
283 287 297 305 309 312 315 318 319 321 323 324 325 328 331 333 332 330 328 327 326 323 322 320 320 316 312 305 302 303 302 304 307 305 303 300 299 295 293 291 291 291 290
278 284 291 297 301 306 308 310 312 313 314 318 320 324 324 325 326 326 325 323 323 322 317 314 312 311 309 309 303 301 298 298 302 303 301 300 299 299 298 295 293 292 293
271 272 281 289 294 299 303 304 305 306 306 308 309 313 313 315 318 322 323 323 321 321 316 312 310 307 305 306 305 303 301 301 303 304 304 301 300 300 300 301 299 296 294
272 274 279 282 288 294 298 299 298 299 300 301 302 306 306 306 311 313 315 316 317 316 314 310 309 306 305 305 305 303 302 302 303 305 305 302 301 302 302 302 301 298 296
273 274 277 280 285 290 292 294 294 294 295 296 297 299 302 305 306 308 308 311 312 310 308 306 305 305 303 304 304 304 301 300 300 301 303 303 302 302 303 303 302 300 299
269 271 276 278 282 285 287 289 289 290 291 292 293 295 298 302 303 303 305 307 308 307 304 300 299 300 302 304 304 304 303 301 301 302 302 302 302 301 300 300 299 299 299
268 270 274 277 278 279 281 284 285 286 289 289 290 292 294 297 298 298 299 301 304 305 301 299 298 298 298 299 301 302 302 304 303 302 302 303 304 302 301 301 300 298 299
268 270 272 275 275 275 276 280 282 283 285 287 288 289 290 293 295 294 295 295 297 302 303 301 300 299 298 299 300 301 302 302 304 304 302 302 302 302 302 301 301 300 300
268 270 272 274 275 277 275 275 277 278 280 283 285 287 286 290 293 293 296 297 297 299 301 300 299 298 297 297 299 300 300 300 301 303 302 300 299 299 300 301 300 299 299
269 270 271 272 274 276 274 275 275 277 280 282 282 285 286 287 289 290 289 291 293 294 297 296 295 295 294 294 295 297 298 298 299 300 301 300 299 297 297 299 300 300 299
270 270 269 270 272 274 274 275 275 277 278 280 282 283 284 286 287 287 289 290 292 292 294 293 292 292 292 293 294 296 296 298 299 298 299 299 299 299 297 297 298 299 298
267 268 268 269 271 272 274 275 276 275 274 274 276 278 280 283 285 286 288 289 291 292 292 290 290 290 291 292 295 296 297 297 297 296 298 300 299 299 299 298 298 297 296
266 266 268 270 271 273 274 275 275 274 273 273 273 274 277 279 282 285 287 289 291 291 292 291 290 290 290 292 295 296 296 297 296 296 297 297 298 299 299 298 297 297 297
267 268 269 270 271 273 273 274 273 272 272 273 274 275 276 276 279 282 284 286 288 288 290 289 289 289 290 291 294 295 295 296 296 296 296 296 295 297 298 298 297 297 297
266 268 269 269 269 271 272 273 272 271 270 271 273 274 276 278 277 279 282 283 284 286 287 288 288 288 290 290 291 293 294 295 296 296 295 295 295 295 296 296 296 296 295
267 268 269 269 269 270 271 272 271 270 270 271 272 275 277 278 278 278 279 280 282 284 285 285 286 287 288 289 290 291 293 294 295 295 294 293 293 294 294 294 294 294 295
267 268 269 269 269 270 271 271 272 270 269 271 273 275 277 278 279 278 277 279 280 282 283 284 286 285 285 286 288 289 291 293 292 293 293 292 292 292 292 293 293 294 294
266 268 269 269 268 268 269 270 270 270 270 272 273 274 275 275 277 277 277 278 279 281 283 283 283 283 282 283 285 287 289 290 291 291 291 291 291 291 292 293 293 293 294